Weather History for Boomvang, TX

Change the Weather History Date:

Saturday, January 25, 2014

  Actual Average Record
Temperature  
Mean Temperature 58 °F -  
Max Temperature 64 °F - - ()
Min Temperature 51 °F - - ()
Degree Days  
Heating Degree Days 8    
Growing Degree Days 8 (Base 50)    
Moisture  
Dew Point 49 °F    
Average Humidity 68    
Maximum Humidity 82    
Minimum Humidity 56    
Precipitation  
Precipitation 0.00 in - - ()
Sea Level Pressure  
Sea Level Pressure 30.21 in    
Wind  
Wind Speed 3 mph (WNW)    
Max Wind Speed 12 mph    
Max Gust Speed 34 mph    
Visibility 10 miles    
Events      
T = Trace of Precipitation, MM = Missing Value Source: NWS Daily Summary

Daily Weather History Graph

Daily Weather History Graph

Search for Another Location

Airport:

Trip Planner

Search our weather history database for the weather conditions in past years. The results will help you decide how hot, cold, wet, or windy it might be!

Date:

Astronomy

Jan. 25, 2014 Rise Set
Actual Time 7:07 AM CST 5:54 PM CST
Civil Twilight 6:42 AM CST 6:19 PM CST
Nautical Twilight 6:14 AM CST 6:47 PM CST
Astronomical Twilight 5:46 AM CST 7:15 PM CST
Moon 1:42 AM CST (1/25) 12:54 PM CST (1/25)
Length of Visible Light 11h 36m
Length of Day
10h 46m
Waning Crescent, 34% of the Moon is Illuminated
Jan 25
Waning Crescent
Jan 30
New
Feb 6
First Quarter
Feb 14
Full
Feb 22
Last Quarter

Hourly Weather History & Observations

Time (CST) Temp. Dew Point Humidity Pressure Visibility Wind Dir Wind Speed Gust Speed Precip Events Conditions
12:15 AM 51.8 °F 46.4 °F 82% 30.34 in 10.0 mi Variable 6.9 mph 12.7 mph N/A   Overcast
12:35 AM 51.8 °F 46.4 °F 82% 30.33 in 10.0 mi North 9.2 mph 17.3 mph N/A   Overcast
12:55 AM 51.8 °F 46.4 °F 82% 30.33 in 10.0 mi NNE 8.1 mph 16.1 mph N/A   Overcast
1:15 AM 53.6 °F 48.2 °F 82% 30.32 in 10.0 mi Calm Calm 15.0 mph N/A   Overcast
1:35 AM 53.6 °F 46.4 °F 77% 30.32 in 10.0 mi Variable 5.8 mph 11.5 mph N/A   Overcast
1:55 AM 53.6 °F 46.4 °F 77% 30.32 in 10.0 mi Variable 3.5 mph 11.5 mph N/A   Overcast
2:15 AM 55.4 °F 48.2 °F 77% 30.31 in 10.0 mi Calm Calm - N/A   Overcast
2:35 AM 57.2 °F 48.2 °F 72% 30.31 in 10.0 mi Calm Calm - N/A   Overcast
2:55 AM 55.4 °F 46.4 °F 72% 30.30 in 10.0 mi Variable 5.8 mph - N/A   Overcast
3:15 AM 57.2 °F 48.2 °F 72% 30.30 in 10.0 mi Calm Calm - N/A   Overcast
3:35 AM 57.2 °F 48.2 °F 72% 30.29 in 10.0 mi Calm Calm - N/A   Overcast
3:55 AM 59.0 °F 48.2 °F 67% 30.29 in 10.0 mi Calm Calm - N/A   Overcast
4:15 AM 59.0 °F 48.2 °F 67% 30.28 in 10.0 mi Calm Calm - N/A   Overcast
4:35 AM 59.0 °F 48.2 °F 67% 30.28 in 10.0 mi Calm Calm - N/A   Overcast
4:55 AM 59.0 °F 48.2 °F 67% 30.28 in 10.0 mi Calm Calm - N/A   Overcast
5:15 AM 59.0 °F 48.2 °F 67% 30.27 in 10.0 mi Calm Calm 12.7 mph N/A   Overcast
5:35 AM 59.0 °F 48.2 °F 67% 30.27 in 10.0 mi Calm Calm - N/A   Overcast
5:55 AM 59.0 °F 48.2 °F 67% 30.27 in 10.0 mi Calm Calm - N/A   Overcast
6:15 AM 59.0 °F 48.2 °F 67% 30.28 in 10.0 mi Calm Calm - N/A   Overcast
6:35 AM 59.0 °F 48.2 °F 67% 30.27 in 10.0 mi Calm Calm - N/A   Overcast
6:55 AM 59.0 °F 48.2 °F 67% 30.27 in 10.0 mi Calm Calm - N/A   Overcast
7:15 AM 59.0 °F 48.2 °F 67% 30.27 in 10.0 mi Calm Calm - N/A   Overcast
7:35 AM 60.8 °F 50.0 °F 68% 30.28 in 10.0 mi Calm Calm - N/A   Overcast
7:55 AM 60.8 °F 50.0 °F 68% 30.28 in 10.0 mi Calm Calm - N/A   Overcast
8:15 AM 59.0 °F 48.2 °F 67% 30.28 in 10.0 mi Calm Calm - N/A   Overcast
8:35 AM 60.8 °F 48.2 °F 63% 30.28 in 10.0 mi Calm Calm - N/A   Overcast
8:55 AM 60.8 °F 50.0 °F 68% 30.28 in 10.0 mi Calm Calm - N/A   Overcast
9:15 AM 60.8 °F 48.2 °F 63% 30.27 in 10.0 mi Calm Calm - N/A   Overcast
9:35 AM 62.6 °F 50.0 °F 63% 30.28 in 10.0 mi Calm Calm - N/A   Overcast
9:55 AM 62.6 °F 50.0 °F 63% 30.28 in 10.0 mi Calm Calm 11.5 mph N/A   Overcast
10:15 AM 64.4 °F 50.0 °F 59% 30.28 in 10.0 mi Calm Calm - N/A   Overcast
10:35 AM 62.6 °F 50.0 °F 63% 30.28 in 10.0 mi Calm Calm - N/A   Overcast
10:55 AM 64.4 °F 50.0 °F 59% 30.27 in 10.0 mi Calm Calm 19.6 mph N/A   Overcast
11:15 AM 62.6 °F 50.0 °F 63% 30.26 in 10.0 mi Calm Calm - N/A   Overcast
11:35 AM 62.6 °F 50.0 °F 63% 30.25 in 10.0 mi Calm Calm - N/A   Overcast
11:55 AM 62.6 °F 50.0 °F 63% 30.24 in 10.0 mi Calm Calm - N/A   Overcast
12:15 PM 62.6 °F 48.2 °F 59% 30.23 in 10.0 mi Calm Calm - N/A   Overcast
12:35 PM 64.4 °F 50.0 °F 59% 30.21 in 10.0 mi Calm Calm - N/A   Overcast
12:55 PM 64.4 °F 50.0 °F 59% 30.20 in 10.0 mi Calm Calm - N/A   Overcast
1:15 PM 62.6 °F 48.2 °F 59% 30.19 in 10.0 mi Calm Calm - N/A   Overcast
1:35 PM 62.6 °F 48.2 °F 59% 30.17 in 10.0 mi Calm Calm - N/A   Overcast
1:55 PM 62.6 °F 48.2 °F 59% 30.16 in 10.0 mi Calm Calm - N/A   Overcast
2:15 PM 64.4 °F 48.2 °F 56% 30.15 in 10.0 mi WNW 11.5 mph 29.9 mph N/A   Mostly Cloudy
2:35 PM 62.6 °F 50.0 °F 63% 30.14 in 9.0 mi WNW 4.6 mph 34.5 mph N/A   Mostly Cloudy
2:55 PM 62.6 °F 50.0 °F 63% 30.14 in 10.0 mi Calm Calm - N/A   Scattered Clouds
3:15 PM 62.6 °F 48.2 °F 59% 30.14 in 10.0 mi WNW 5.8 mph - N/A   Partly Cloudy
3:35 PM 60.8 °F 50.0 °F 68% 30.13 in 10.0 mi Variable 4.6 mph - N/A   Scattered Clouds
3:55 PM 60.8 °F 50.0 °F 68% 30.13 in 10.0 mi Calm Calm - N/A   Mostly Cloudy
4:15 PM 60.8 °F 50.0 °F 68% 30.12 in 10.0 mi Variable 4.6 mph - N/A   Overcast
4:35 PM 60.8 °F 50.0 °F 68% 30.12 in 10.0 mi Variable 3.5 mph - N/A   Mostly Cloudy
4:55 PM 59.0 °F 50.0 °F 72% 30.12 in 10.0 mi West 6.9 mph - N/A   Overcast
5:15 PM 60.8 °F 50.0 °F 68% 30.12 in 10.0 mi Variable 5.8 mph - N/A   Mostly Cloudy
5:35 PM 60.8 °F 50.0 °F 68% 30.12 in 10.0 mi WNW 6.9 mph - N/A   Mostly Cloudy
5:55 PM 59.0 °F 50.0 °F 72% 30.12 in 10.0 mi West 8.1 mph - N/A   Mostly Cloudy
6:15 PM 59.0 °F 50.0 °F 72% 30.12 in 10.0 mi Variable 5.8 mph 12.7 mph N/A   Mostly Cloudy
6:35 PM 59.0 °F 50.0 °F 72% 30.13 in 10.0 mi West 8.1 mph - N/A   Overcast
6:55 PM 60.8 °F 50.0 °F 68% 30.13 in 10.0 mi Calm Calm - N/A   Overcast
7:15 PM 60.8 °F 50.0 °F 68% 30.12 in 10.0 mi West 6.9 mph - N/A   Mostly Cloudy
7:35 PM 60.8 °F 51.8 °F 72% 30.13 in 10.0 mi Calm Calm - N/A   Mostly Cloudy
7:55 PM 62.6 °F 51.8 °F 68% 30.13 in 10.0 mi Variable 3.5 mph - N/A   Mostly Cloudy
8:15 PM 62.6 °F 50.0 °F 63% 30.13 in 10.0 mi West 5.8 mph - N/A   Overcast
8:35 PM 60.8 °F 50.0 °F 68% 30.13 in 10.0 mi West 5.8 mph - N/A   Mostly Cloudy
8:55 PM 59.0 °F 50.0 °F 72% 30.12 in 10.0 mi Variable 5.8 mph - N/A   Scattered Clouds
9:15 PM 59.0 °F 50.0 °F 72% 30.12 in 10.0 mi WNW 4.6 mph - N/A   Scattered Clouds
9:35 PM 59.0 °F 50.0 °F 72% 30.11 in 10.0 mi West 6.9 mph - N/A   Partly Cloudy
9:55 PM 59.0 °F 50.0 °F 72% 30.10 in 10.0 mi West 9.2 mph - N/A   Clear
10:15 PM 59.0 °F 50.0 °F 72% 30.10 in 10.0 mi West 9.2 mph - N/A   Clear
10:35 PM 59.0 °F 50.0 °F 72% 30.10 in 10.0 mi West 9.2 mph - N/A   Clear
10:55 PM 60.8 °F 50.0 °F 68% 30.09 in 10.0 mi West 9.2 mph 16.1 mph N/A   Clear
11:15 PM 60.8 °F 50.0 °F 68% 30.09 in 10.0 mi West 9.2 mph - N/A   Clear
11:35 PM 60.8 °F 51.8 °F 72% 30.08 in 10.0 mi West 10.4 mph - N/A   Partly Cloudy
11:55 PM 60.8 °F 51.8 °F 72% 30.08 in 10.0 mi West 11.5 mph - N/A   Partly Cloudy